{"data":{"norad_id":63447,"epoch":"2026-09-20T21:00:10.895904Z","epoch_age_seconds":123242,"freshness":"FRESH","line1":"1 63447U 25069Q   26263.87512611  .00018833  00000+0  56719-3 0  9999","line2":"2 63447  53.1602 314.0755 0001117  84.4439 275.6691 15.34396669 83201","mean_motion":15.34396669,"eccentricity":0.0001117,"inclination_deg":53.1602,"raan_deg":314.0755,"arg_perigee_deg":84.4439,"mean_anomaly_deg":275.6691,"bstar":0.00056719,"rev_number":8320,"period_min":93.847961814104,"perigee_km":461.94901769828,"apogee_km":463.4772636197,"semimajor_km":6840.850140659,"source":"CELESTRAK","updated_at":"2026-09-21T09:00:35.004194Z"}}